Time,TemperatureF,DewpointF,PressureIn,WindDirection,WindDirectionDegrees,WindSpeedMPH,WindSpeedGustMPH,Humidity,HourlyPrecipIn,Conditions,Clouds,dailyrainin,SoftwareType,DateUTC
2013-01-15 00:05:00,41.8,33.1,29.92,East,85,2.0,2.0,71,0.00,,,0.00,Wunderground v.1.13,2013-01-15 06:05:00,
2013-01-15 00:14:00,41.6,33.2,29.92,ENE,74,3.0,3.0,72,0.00,,,0.00,Wunderground v.1.13,2013-01-15 06:14:00,
2013-01-15 00:19:00,41.5,33.1,29.93,ENE,74,2.0,2.0,72,0.00,,,0.00,Wunderground v.1.13,2013-01-15 06:19:00,
2013-01-15 00:24:00,41.4,33.4,29.93,ENE,73,2.0,2.0,73,0.00,,,0.00,Wunderground v.1.13,2013-01-15 06:24:00,
2013-01-15 00:29:00,41.3,33.6,29.92,ENE,59,2.0,3.0,74,0.00,,,0.00,Wunderground v.1.13,2013-01-15 06:29:00,
2013-01-15 00:35:00,41.1,33.4,29.93,East,80,2.0,3.0,74,0.00,,,0.00,Wunderground v.1.13,2013-01-15 06:35:00,
2013-01-15 00:40:00,40.9,33.6,29.93,East,80,1.0,1.0,75,0.00,,,0.00,Wunderground v.1.13,2013-01-15 06:40:00,
2013-01-15 00:45:00,40.9,33.6,29.93,East,96,2.0,2.0,75,0.00,,,0.00,Wunderground v.1.13,2013-01-15 06:45:00,
2013-01-15 00:50:00,40.7,33.4,29.93,ENE,75,2.0,2.0,75,0.00,,,0.00,Wunderground v.1.13,2013-01-15 06:50:00,
2013-01-15 00:55:00,40.6,33.6,29.93,East,92,2.0,7.0,76,0.00,,,0.00,Wunderground v.1.13,2013-01-15 06:55:00,
2013-01-15 01:00:00,40.5,33.9,29.93,East,90,3.0,3.0,77,0.00,,,0.00,Wunderground v.1.13,2013-01-15 07:00:00,
2013-01-15 01:05:00,40.3,34.0,29.92,East,90,3.0,3.0,78,0.00,,,0.00,Wunderground v.1.13,2013-01-15 07:05:00,
2013-01-15 01:15:00,39.8,34.1,29.93,East,84,2.0,6.0,80,0.00,,,0.00,Wunderground v.1.13,2013-01-15 07:15:00,
2013-01-15 01:20:00,39.6,34.2,29.92,East,82,2.0,2.0,81,0.00,,,0.00,Wunderground v.1.13,2013-01-15 07:20:00,
2013-01-15 01:25:00,39.4,34.4,29.93,East,79,2.0,5.0,82,0.00,,,0.00,Wunderground v.1.13,2013-01-15 07:25:00,
2013-01-15 01:34:00,39.0,34.6,29.92,ENE,78,1.0,1.0,84,0.00,,,0.00,Wunderground v.1.13,2013-01-15 07:34:00,
2013-01-15 01:39:00,38.9,34.8,29.93,ENE,78,1.0,3.0,85,0.00,,,0.00,Wunderground v.1.13,2013-01-15 07:39:00,
2013-01-15 01:45:00,38.7,34.9,29.92,ENE,57,1.0,1.0,86,0.00,,,0.00,Wunderground v.1.13,2013-01-15 07:45:00,
2013-01-15 01:50:00,38.7,35.2,29.93,ENE,58,1.0,1.0,87,0.00,,,0.00,Wunderground v.1.13,2013-01-15 07:50:00,
2013-01-15 01:55:00,38.6,35.4,29.93,ENE,58,0.0,0.0,88,0.00,,,0.00,Wunderground v.1.13,2013-01-15 07:55:00,
2013-01-15 02:00:00,38.5,35.3,29.93,ENE,58,0.0,0.0,88,0.00,,,0.00,Wunderground v.1.13,2013-01-15 08:00:00,
2013-01-15 02:05:00,38.4,35.4,29.93,ENE,58,0.0,0.0,89,0.00,,,0.00,Wunderground v.1.13,2013-01-15 08:05:00,
2013-01-15 02:14:00,38.3,35.6,29.93,ENE,58,0.0,0.0,90,0.00,,,0.00,Wunderground v.1.13,2013-01-15 08:14:00,
2013-01-15 02:19:00,38.3,35.6,29.93,NE,56,0.0,0.0,90,0.00,,,0.00,Wunderground v.1.13,2013-01-15 08:19:00,
2013-01-15 02:29:00,38.2,35.8,29.93,NE,56,0.0,0.0,91,0.00,,,0.01,Wunderground v.1.13,2013-01-15 08:29:00,
2013-01-15 02:34:00,38.1,35.7,29.93,NE,55,0.0,0.0,91,0.00,,,0.01,Wunderground v.1.13,2013-01-15 08:34:00,
2013-01-15 02:39:00,38.0,35.6,29.93,NE,55,0.0,1.0,91,0.00,,,0.01,Wunderground v.1.13,2013-01-15 08:39:00,
2013-01-15 02:45:00,37.9,35.5,29.93,NE,43,1.0,1.0,91,0.00,,,0.01,Wunderground v.1.13,2013-01-15 08:45:00,
2013-01-15 02:50:00,37.7,35.3,29.93,North,9,1.0,1.0,91,0.00,,,0.01,Wunderground v.1.13,2013-01-15 08:50:00,
2013-01-15 02:55:00,37.5,35.4,29.93,NNE,17,1.0,3.0,92,0.00,,,0.01,Wunderground v.1.13,2013-01-15 08:55:00,
2013-01-15 03:00:00,37.5,35.4,29.93,NNE,15,1.0,1.0,92,0.00,,,0.01,Wunderground v.1.13,2013-01-15 09:00:00,
2013-01-15 03:05:00,37.5,35.4,29.93,NNE,15,1.0,1.0,92,0.00,,,0.01,Wunderground v.1.13,2013-01-15 09:05:00,
2013-01-15 03:10:00,37.4,35.3,29.93,NNE,15,0.0,0.0,92,0.00,,,0.01,Wunderground v.1.13,2013-01-15 09:10:00,
2013-01-15 03:15:00,37.4,35.3,29.92,NNE,15,0.0,0.0,92,0.00,,,0.01,Wunderground v.1.13,2013-01-15 09:15:00,
2013-01-15 03:20:00,37.4,35.3,29.92,NNE,15,1.0,1.0,92,0.00,,,0.01,Wunderground v.1.13,2013-01-15 09:20:00,
2013-01-15 03:25:00,37.3,35.2,29.92,NE,39,1.0,1.0,92,0.00,,,0.02,Wunderground v.1.13,2013-01-15 09:25:00,
2013-01-15 03:35:00,37.3,35.5,29.92,NE,34,1.0,1.0,93,0.00,,,0.02,Wunderground v.1.13,2013-01-15 09:35:00,
2013-01-15 03:40:00,37.2,35.4,29.92,NE,34,1.0,1.0,93,0.00,,,0.02,Wunderground v.1.13,2013-01-15 09:40:00,
2013-01-15 03:49:00,37.3,35.5,29.92,NE,34,0.0,0.0,93,0.00,,,0.02,Wunderground v.1.13,2013-01-15 09:49:00,
2013-01-15 03:54:00,37.3,35.5,29.92,NE,34,0.0,0.0,93,0.00,,,0.02,Wunderground v.1.13,2013-01-15 09:54:00,
2013-01-15 03:59:00,37.2,35.4,29.91,NE,34,1.0,1.0,93,0.00,,,0.02,Wunderground v.1.13,2013-01-15 09:59:00,
2013-01-15 04:05:00,37.1,35.3,29.91,NE,36,1.0,1.0,93,0.00,,,0.02,Wunderground v.1.13,2013-01-15 10:05:00,
2013-01-15 04:15:00,37.0,35.2,29.91,NNE,21,1.0,1.0,93,0.00,,,0.02,Wunderground v.1.13,2013-01-15 10:15:00,
2013-01-15 04:20:00,37.0,35.2,29.91,NNE,28,1.0,2.0,93,0.00,,,0.02,Wunderground v.1.13,2013-01-15 10:20:00,
2013-01-15 04:25:00,36.9,35.1,29.91,NNE,31,1.0,1.0,93,0.00,,,0.02,Wunderground v.1.13,2013-01-15 10:25:00,
2013-01-15 04:30:00,36.8,35.0,29.91,NNE,26,1.0,1.0,93,0.00,,,0.02,Wunderground v.1.13,2013-01-15 10:30:00,
2013-01-15 04:35:00,36.9,35.1,29.91,NNE,28,1.0,1.0,93,0.00,,,0.02,Wunderground v.1.13,2013-01-15 10:35:00,
2013-01-15 04:45:00,36.9,35.1,29.92,NNE,30,1.0,1.0,93,0.00,,,0.02,Wunderground v.1.13,2013-01-15 10:45:00,
2013-01-15 04:50:00,36.8,35.0,29.92,NNE,30,1.0,1.0,93,0.00,,,0.02,Wunderground v.1.13,2013-01-15 10:50:00,
2013-01-15 04:55:00,36.8,35.0,29.92,NNE,30,1.0,1.0,93,0.00,,,0.02,Wunderground v.1.13,2013-01-15 10:55:00,
2013-01-15 05:00:00,36.8,35.0,29.92,NNE,30,0.0,0.0,93,0.00,,,0.02,Wunderground v.1.13,2013-01-15 11:00:00,
2013-01-15 05:09:00,36.9,35.1,29.93,NNE,29,0.0,3.0,93,0.00,,,0.03,Wunderground v.1.13,2013-01-15 11:09:00,
2013-01-15 05:14:00,36.8,35.0,29.93,NNE,28,1.0,2.0,93,0.00,,,0.03,Wunderground v.1.13,2013-01-15 11:14:00,
2013-01-15 05:19:00,36.6,34.8,29.92,NE,34,1.0,3.0,93,0.00,,,0.03,Wunderground v.1.13,2013-01-15 11:19:00,
2013-01-15 05:24:00,36.4,34.6,29.92,NE,38,1.0,1.0,93,0.00,,,0.03,Wunderground v.1.13,2013-01-15 11:24:00,
2013-01-15 05:30:00,36.3,34.5,29.92,NE,42,1.0,1.0,93,0.00,,,0.03,Wunderground v.1.13,2013-01-15 11:30:00,
2013-01-15 05:35:00,36.3,34.5,29.92,NE,42,1.0,1.0,93,0.00,,,0.03,Wunderground v.1.13,2013-01-15 11:35:00,
2013-01-15 05:40:00,36.2,34.4,29.92,NE,49,1.0,3.0,93,0.00,,,0.03,Wunderground v.1.13,2013-01-15 11:40:00,
2013-01-15 05:45:00,36.3,34.7,29.92,NE,50,1.0,2.0,94,0.00,,,0.03,Wunderground v.1.13,2013-01-15 11:45:00,
2013-01-15 05:55:00,36.2,34.6,29.92,ENE,57,1.0,1.0,94,0.00,,,0.03,Wunderground v.1.13,2013-01-15 11:55:00,
2013-01-15 06:00:00,36.2,34.6,29.92,NE,56,1.0,1.0,94,0.00,,,0.03,Wunderground v.1.13,2013-01-15 12:00:00,
2013-01-15 06:05:00,36.2,34.6,29.93,NE,50,1.0,1.0,94,0.00,,,0.03,Wunderground v.1.13,2013-01-15 12:05:00,
2013-01-15 06:14:00,36.2,34.6,29.93,NNE,32,1.0,1.0,94,0.00,,,0.03,Wunderground v.1.13,2013-01-15 12:14:00,
2013-01-15 06:19:00,36.1,34.5,29.92,NE,38,1.0,1.0,94,0.00,,,0.03,Wunderground v.1.13,2013-01-15 12:19:00,
2013-01-15 06:24:00,36.2,34.6,29.93,NE,38,1.0,1.0,94,0.00,,,0.03,Wunderground v.1.13,2013-01-15 12:24:00,
2013-01-15 06:29:00,36.2,34.6,29.93,NNE,18,1.0,2.0,94,0.00,,,0.03,Wunderground v.1.13,2013-01-15 12:29:00,
2013-01-15 06:34:00,36.1,34.5,29.93,NE,39,1.0,1.0,94,0.00,,,0.03,Wunderground v.1.13,2013-01-15 12:34:00,
2013-01-15 06:40:00,36.1,34.5,29.93,NNE,22,1.0,2.0,94,0.00,,,0.03,Wunderground v.1.13,2013-01-15 12:40:00,
2013-01-15 06:45:00,36.1,34.5,29.93,NNE,25,1.0,1.0,94,0.00,,,0.03,Wunderground v.1.13,2013-01-15 12:45:00,
2013-01-15 06:50:00,36.1,34.5,29.93,NNE,26,1.0,2.0,94,0.00,,,0.03,Wunderground v.1.13,2013-01-15 12:50:00,
2013-01-15 06:55:00,36.1,34.5,29.93,NNE,26,1.0,1.0,94,0.00,,,0.03,Wunderground v.1.13,2013-01-15 12:55:00,
2013-01-15 07:05:00,36.1,34.5,29.94,NE,36,1.0,1.0,94,0.00,,,0.03,Wunderground v.1.13,2013-01-15 13:05:00,
2013-01-15 07:10:00,36.1,34.5,29.93,NE,36,1.0,1.0,94,0.00,,,0.03,Wunderground v.1.13,2013-01-15 13:10:00,
2013-01-15 07:15:00,36.2,34.6,29.93,NE,36,0.0,0.0,94,0.00,,,0.03,Wunderground v.1.13,2013-01-15 13:15:00,
2013-01-15 07:20:00,36.2,34.6,29.93,NE,34,1.0,1.0,94,0.00,,,0.03,Wunderground v.1.13,2013-01-15 13:20:00,
2013-01-15 07:25:00,36.1,34.5,29.93,NNE,13,1.0,2.0,94,0.00,,,0.03,Wunderground v.1.13,2013-01-15 13:25:00,
2013-01-15 07:30:00,36.1,34.5,29.94,NNE,15,1.0,1.0,94,0.00,,,0.03,Wunderground v.1.13,2013-01-15 13:30:00,
2013-01-15 07:35:00,36.1,34.5,29.94,North,5,1.0,7.0,94,0.00,,,0.03,Wunderground v.1.13,2013-01-15 13:35:00,
2013-01-15 07:40:00,36.1,34.5,29.94,NNE,17,1.0,1.0,94,0.00,,,0.03,Wunderground v.1.13,2013-01-15 13:40:00,
2013-01-15 07:45:00,36.1,34.5,29.93,NNE,15,1.0,3.0,94,0.00,,,0.03,Wunderground v.1.13,2013-01-15 13:45:00,
2013-01-15 07:50:00,36.1,34.5,29.94,NNE,13,1.0,1.0,94,0.00,,,0.03,Wunderground v.1.13,2013-01-15 13:50:00,
2013-01-15 07:59:00,36.3,34.7,29.96,NNE,14,0.0,0.0,94,0.00,,,0.03,Wunderground v.1.13,2013-01-15 13:59:00,
2013-01-15 08:05:00,36.3,34.5,29.96,ENE,72,1.0,1.0,93,0.00,,,0.03,Wunderground v.1.13,2013-01-15 14:05:00,
2013-01-15 08:15:00,36.3,34.5,29.97,NE,36,1.0,1.0,93,0.00,,,0.03,Wunderground v.1.13,2013-01-15 14:15:00,
2013-01-15 08:20:00,36.3,34.5,29.97,NNE,17,1.0,1.0,93,0.00,,,0.03,Wunderground v.1.13,2013-01-15 14:20:00,
2013-01-15 08:25:00,36.4,34.6,29.97,North,11,1.0,1.0,93,0.00,,,0.03,Wunderground v.1.13,2013-01-15 14:25:00,
2013-01-15 08:30:00,36.4,34.6,29.97,NNE,17,1.0,1.0,93,0.00,,,0.03,Wunderground v.1.13,2013-01-15 14:30:00,
2013-01-15 08:35:00,36.4,34.6,29.97,NNE,32,1.0,1.0,93,0.00,,,0.03,Wunderground v.1.13,2013-01-15 14:35:00,
2013-01-15 08:40:00,36.5,34.7,29.98,NNE,16,1.0,2.0,93,0.00,,,0.03,Wunderground v.1.13,2013-01-15 14:40:00,
2013-01-15 08:45:00,36.5,34.7,29.97,NNE,32,1.0,1.0,93,0.00,,,0.03,Wunderground v.1.13,2013-01-15 14:45:00,
2013-01-15 08:54:00,36.4,34.3,29.96,NE,35,1.0,1.0,92,0.00,,,0.03,Wunderground v.1.13,2013-01-15 14:54:00,
2013-01-15 08:59:00,36.4,34.3,29.96,NNW,348,1.0,1.0,92,0.00,,,0.03,Wunderground v.1.13,2013-01-15 14:59:00,
2013-01-15 09:04:00,36.4,34.3,29.97,North,349,1.0,2.0,92,0.00,,,0.03,Wunderground v.1.13,2013-01-15 15:04:00,
2013-01-15 09:09:00,36.4,34.3,29.97,NNE,12,1.0,1.0,92,0.00,,,0.03,Wunderground v.1.13,2013-01-15 15:09:00,
2013-01-15 09:14:00,36.3,34.2,29.97,NNE,22,2.0,2.0,92,0.00,,,0.03,Wunderground v.1.13,2013-01-15 15:14:00,
2013-01-15 09:24:00,36.4,34.3,29.97,NE,36,2.0,2.0,92,0.00,,,0.03,Wunderground v.1.13,2013-01-15 15:24:00,
2013-01-15 09:29:00,36.5,34.4,29.97,NE,42,2.0,2.0,92,0.00,,,0.03,Wunderground v.1.13,2013-01-15 15:29:00,
2013-01-15 09:35:00,36.5,34.4,29.98,NE,54,1.0,1.0,92,0.00,,,0.03,Wunderground v.1.13,2013-01-15 15:35:00,
2013-01-15 09:40:00,36.5,34.4,29.97,NE,34,1.0,2.0,92,0.00,,,0.03,Wunderground v.1.13,2013-01-15 15:40:00,
2013-01-15 09:45:00,36.4,34.3,29.97,NE,41,1.0,1.0,92,0.00,,,0.03,Wunderground v.1.13,2013-01-15 15:45:00,
2013-01-15 09:50:00,36.4,34.3,29.98,North,355,2.0,2.0,92,0.00,,,0.03,Wunderground v.1.13,2013-01-15 15:50:00,
2013-01-15 09:55:00,36.3,34.2,29.97,NNW,338,2.0,2.0,92,0.00,,,0.03,Wunderground v.1.13,2013-01-15 15:55:00,
2013-01-15 10:00:00,36.2,34.1,29.97,ENE,61,2.0,2.0,92,0.00,,,0.03,Wunderground v.1.13,2013-01-15 16:00:00,
2013-01-15 10:05:00,36.3,34.2,29.97,North,360,2.0,2.0,92,0.00,,,0.03,Wunderground v.1.13,2013-01-15 16:05:00,
2013-01-15 10:14:00,36.4,34.0,29.97,NE,49,2.0,2.0,91,0.00,,,0.03,Wunderground v.1.13,2013-01-15 16:14:00,
2013-01-15 10:20:00,36.5,34.1,29.97,NNE,31,1.0,1.0,91,0.00,,,0.03,Wunderground v.1.13,2013-01-15 16:20:00,
2013-01-15 10:25:00,36.6,34.2,29.97,NNE,31,1.0,1.0,91,0.00,,,0.03,Wunderground v.1.13,2013-01-15 16:25:00,
2013-01-15 10:34:00,36.5,33.8,29.97,NE,46,3.0,3.0,90,0.00,,,0.03,Wunderground v.1.13,2013-01-15 16:34:00,
2013-01-15 10:39:00,36.5,33.8,29.97,NE,50,2.0,2.0,90,0.00,,,0.03,Wunderground v.1.13,2013-01-15 16:39:00,
2013-01-15 10:45:00,36.6,33.9,29.97,North,355,2.0,2.0,90,0.00,,,0.03,Wunderground v.1.13,2013-01-15 16:45:00,
2013-01-15 10:50:00,36.6,33.9,29.97,North,5,2.0,5.0,90,0.00,,,0.03,Wunderground v.1.13,2013-01-15 16:50:00,
2013-01-15 10:55:00,36.5,33.8,29.97,ENE,65,2.0,2.0,90,0.00,,,0.03,Wunderground v.1.13,2013-01-15 16:55:00,
2013-01-15 11:00:00,36.6,33.9,29.97,ENE,68,2.0,2.0,90,0.00,,,0.03,Wunderground v.1.13,2013-01-15 17:00:00,
2013-01-15 11:05:00,36.5,33.8,29.96,NNE,31,2.0,2.0,90,0.00,,,0.03,Wunderground v.1.13,2013-01-15 17:05:00,
2013-01-15 11:10:00,36.6,33.9,29.96,NNE,22,2.0,2.0,90,0.00,,,0.03,Wunderground v.1.13,2013-01-15 17:10:00,
2013-01-15 11:15:00,36.9,34.2,29.96,NNE,13,1.0,1.0,90,0.00,,,0.03,Wunderground v.1.13,2013-01-15 17:15:00,
2013-01-15 11:20:00,37.0,34.3,29.96,North,9,1.0,1.0,90,0.00,,,0.03,Wunderground v.1.13,2013-01-15 17:20:00,
2013-01-15 11:25:00,37.0,34.3,29.96,North,355,1.0,3.0,90,0.00,,,0.03,Wunderground v.1.13,2013-01-15 17:25:00,
2013-01-15 11:30:00,36.9,34.2,29.96,West,276,1.0,3.0,90,0.00,,,0.03,Wunderground v.1.13,2013-01-15 17:30:00,
2013-01-15 11:40:00,37.0,34.3,29.96,WSW,241,2.0,2.0,90,0.00,,,0.03,Wunderground v.1.13,2013-01-15 17:40:00,
2013-01-15 11:45:00,36.9,34.0,29.95,NNE,13,2.0,2.0,89,0.00,,,0.03,Wunderground v.1.13,2013-01-15 17:45:00,
2013-01-15 11:50:00,36.8,34.1,29.96,ENE,64,2.0,2.0,90,0.00,,,0.03,Wunderground v.1.13,2013-01-15 17:50:00,
2013-01-15 11:59:00,36.7,33.8,29.95,NE,38,2.0,2.0,89,0.00,,,0.03,Wunderground v.1.13,2013-01-15 17:59:00,
2013-01-15 12:05:00,36.7,33.8,29.95,NNE,33,1.0,2.0,89,0.00,,,0.03,Wunderground v.1.13,2013-01-15 18:05:00,
2013-01-15 12:15:00,36.7,33.8,29.95,NNW,331,2.0,2.0,89,0.00,,,0.03,Wunderground v.1.13,2013-01-15 18:15:00,
2013-01-15 12:20:00,36.7,33.8,29.95,North,5,2.0,2.0,89,0.00,,,0.03,Wunderground v.1.13,2013-01-15 18:20:00,
2013-01-15 12:29:00,36.8,33.9,29.95,NNW,340,2.0,4.0,89,0.00,,,0.03,Wunderground v.1.13,2013-01-15 18:29:00,
2013-01-15 12:34:00,36.9,34.0,29.94,NW,325,2.0,2.0,89,0.00,,,0.03,Wunderground v.1.13,2013-01-15 18:34:00,
2013-01-15 12:39:00,36.9,34.0,29.94,North,5,2.0,2.0,89,0.00,,,0.03,Wunderground v.1.13,2013-01-15 18:39:00,
2013-01-15 12:44:00,37.1,34.2,29.94,NNW,345,1.0,1.0,89,0.00,,,0.03,Wunderground v.1.13,2013-01-15 18:44:00,
2013-01-15 12:54:00,37.1,34.2,29.94,NNE,28,2.0,3.0,89,0.00,,,0.03,Wunderground v.1.13,2013-01-15 18:54:00,
2013-01-15 12:59:00,37.2,34.0,29.93,NNW,343,2.0,2.0,88,0.00,,,0.03,Wunderground v.1.13,2013-01-15 18:59:00,
2013-01-15 13:04:00,37.5,34.3,29.93,NE,52,2.0,5.0,88,0.00,,,0.03,Wunderground v.1.13,2013-01-15 19:04:00,
2013-01-15 13:10:00,37.5,34.3,29.92,NNW,335,2.0,5.0,88,0.00,,,0.03,Wunderground v.1.13,2013-01-15 19:10:00,
2013-01-15 13:14:00,37.4,33.9,29.92,North,350,3.0,4.0,87,0.00,,,0.03,Wunderground v.1.13,2013-01-15 19:14:00,
2013-01-15 13:20:00,37.4,33.9,29.92,NW,317,4.0,4.0,87,0.00,,,0.03,Wunderground v.1.13,2013-01-15 19:20:00,
2013-01-15 13:25:00,37.3,33.8,29.91,NW,322,4.0,4.0,87,0.00,,,0.03,Wunderground v.1.13,2013-01-15 19:25:00,
2013-01-15 13:30:00,37.4,34.2,29.92,NNW,343,2.0,2.0,88,0.00,,,0.03,Wunderground v.1.13,2013-01-15 19:30:00,
2013-01-15 13:35:00,37.4,33.9,29.91,North,355,2.0,3.0,87,0.00,,,0.03,Wunderground v.1.13,2013-01-15 19:35:00,
2013-01-15 13:40:00,37.7,34.2,29.92,NW,311,3.0,3.0,87,0.00,,,0.03,Wunderground v.1.13,2013-01-15 19:40:00,
2013-01-15 13:45:00,37.7,34.2,29.92,NNW,333,3.0,3.0,87,0.00,,,0.03,Wunderground v.1.13,2013-01-15 19:45:00,
2013-01-15 13:50:00,37.8,34.3,29.92,NNW,346,3.0,3.0,87,0.00,,,0.03,Wunderground v.1.13,2013-01-15 19:50:00,
2013-01-15 14:00:00,37.9,34.4,29.93,NNW,327,2.0,2.0,87,0.00,,,0.03,Wunderground v.1.13,2013-01-15 20:00:00,
2013-01-15 14:05:00,37.9,34.1,29.93,North,355,3.0,3.0,86,0.00,,,0.03,Wunderground v.1.13,2013-01-15 20:05:00,
2013-01-15 14:14:00,38.2,34.7,29.92,ENE,71,3.0,3.0,87,0.00,,,0.03,Wunderground v.1.13,2013-01-15 20:14:00,
2013-01-15 14:19:00,38.5,34.7,29.92,NE,37,3.0,8.0,86,0.00,,,0.03,Wunderground v.1.13,2013-01-15 20:19:00,
2013-01-15 14:25:00,38.6,34.5,29.91,NE,52,3.0,3.0,85,0.00,,,0.03,Wunderground v.1.13,2013-01-15 20:25:00,
2013-01-15 14:30:00,38.7,34.6,29.91,NE,50,2.0,2.0,85,0.00,,,0.03,Wunderground v.1.13,2013-01-15 20:30:00,
2013-01-15 14:35:00,38.9,35.1,29.91,ESE,109,1.0,1.0,86,0.00,,,0.03,Wunderground v.1.13,2013-01-15 20:35:00,
2013-01-15 14:40:00,38.9,35.1,29.91,NNE,20,1.0,1.0,86,0.00,,,0.03,Wunderground v.1.13,2013-01-15 20:40:00,
2013-01-15 14:45:00,38.8,34.7,29.92,NNE,32,2.0,2.0,85,0.00,,,0.03,Wunderground v.1.13,2013-01-15 20:45:00,
2013-01-15 14:50:00,38.7,34.9,29.92,NE,45,2.0,4.0,86,0.00,,,0.03,Wunderground v.1.13,2013-01-15 20:50:00,
2013-01-15 14:59:00,38.6,34.8,29.92,NNE,15,3.0,3.0,86,0.00,,,0.03,Wunderground v.1.13,2013-01-15 20:59:00,
2013-01-15 15:04:00,38.7,34.9,29.93,North,355,2.0,3.0,86,0.00,,,0.03,Wunderground v.1.13,2013-01-15 21:04:00,
2013-01-15 15:14:00,38.8,35.0,29.92,NNE,24,2.0,2.0,86,0.00,,,0.03,Wunderground v.1.13,2013-01-15 21:14:00,
2013-01-15 15:19:00,38.9,35.1,29.93,NW,312,2.0,8.0,86,0.00,,,0.03,Wunderground v.1.13,2013-01-15 21:19:00,
2013-01-15 15:24:00,39.2,35.4,29.93,NNW,346,2.0,2.0,86,0.00,,,0.03,Wunderground v.1.13,2013-01-15 21:24:00,
2013-01-15 15:29:00,39.4,35.3,29.93,North,355,2.0,6.0,85,0.00,,,0.03,Wunderground v.1.13,2013-01-15 21:29:00,
2013-01-15 15:34:00,39.6,35.5,29.93,NNW,328,2.0,2.0,85,0.00,,,0.03,Wunderground v.1.13,2013-01-15 21:34:00,
2013-01-15 15:39:00,39.9,35.8,29.93,NNW,347,2.0,3.0,85,0.00,,,0.03,Wunderground v.1.13,2013-01-15 21:39:00,
2013-01-15 15:45:00,39.8,35.4,29.93,NNW,329,2.0,5.0,84,0.00,,,0.03,Wunderground v.1.13,2013-01-15 21:45:00,
2013-01-15 15:50:00,39.6,35.2,29.93,NNW,333,3.0,3.0,84,0.00,,,0.03,Wunderground v.1.13,2013-01-15 21:50:00,
2013-01-15 15:55:00,39.3,34.9,29.93,NNW,327,3.0,5.0,84,0.00,,,0.03,Wunderground v.1.13,2013-01-15 21:55:00,
2013-01-15 16:00:00,39.2,34.8,29.93,North,10,3.0,3.0,84,0.00,,,0.03,Wunderground v.1.13,2013-01-15 22:00:00,
2013-01-15 16:05:00,39.3,34.9,29.93,NNE,28,2.0,2.0,84,0.00,,,0.03,Wunderground v.1.13,2013-01-15 22:05:00,
2013-01-15 16:14:00,39.5,34.8,29.93,NNW,329,3.0,3.0,83,0.00,,,0.03,Wunderground v.1.13,2013-01-15 22:14:00,
2013-01-15 16:24:00,39.3,34.6,29.94,NNW,327,3.0,4.0,83,0.00,,,0.03,Wunderground v.1.13,2013-01-15 22:24:00,
2013-01-15 16:29:00,39.2,34.5,29.94,NNE,21,3.0,3.0,83,0.00,,,0.03,Wunderground v.1.13,2013-01-15 22:29:00,
2013-01-15 16:34:00,39.2,34.5,29.95,North,360,3.0,3.0,83,0.00,,,0.03,Wunderground v.1.13,2013-01-15 22:34:00,
2013-01-15 16:39:00,39.2,34.5,29.95,NNW,336,2.0,2.0,83,0.00,,,0.03,Wunderground v.1.13,2013-01-15 22:39:00,
2013-01-15 16:44:00,39.3,34.6,29.96,NNW,335,2.0,2.0,83,0.00,,,0.03,Wunderground v.1.13,2013-01-15 22:44:00,
2013-01-15 16:49:00,39.3,34.6,29.97,NW,323,2.0,8.0,83,0.00,,,0.03,Wunderground v.1.13,2013-01-15 22:49:00,
2013-01-15 16:54:00,39.2,34.2,29.97,NNW,334,3.0,3.0,82,0.00,,,0.03,Wunderground v.1.13,2013-01-15 22:54:00,
2013-01-15 17:00:00,39.2,34.2,29.97,NNW,327,3.0,3.0,82,0.00,,,0.03,Wunderground v.1.13,2013-01-15 23:00:00,
2013-01-15 17:05:00,39.2,34.2,29.98,NNE,12,2.0,2.0,82,0.00,,,0.03,Wunderground v.1.13,2013-01-15 23:05:00,
2013-01-15 17:10:00,39.2,34.2,29.97,NW,323,2.0,3.0,82,0.00,,,0.03,Wunderground v.1.13,2013-01-15 23:10:00,
2013-01-15 17:15:00,39.3,34.3,29.98,NNW,342,2.0,2.0,82,0.00,,,0.03,Wunderground v.1.13,2013-01-15 23:15:00,
2013-01-15 17:20:00,39.4,34.7,29.98,NNW,345,2.0,2.0,83,0.00,,,0.03,Wunderground v.1.13,2013-01-15 23:20:00,
2013-01-15 17:30:00,39.4,34.4,29.98,NNW,344,2.0,4.0,82,0.00,,,0.03,Wunderground v.1.13,2013-01-15 23:30:00,
2013-01-15 17:35:00,39.4,34.4,29.98,NW,317,2.0,2.0,82,0.00,,,0.03,Wunderground v.1.13,2013-01-15 23:35:00,
2013-01-15 17:40:00,39.4,34.4,29.98,NNW,334,2.0,3.0,82,0.00,,,0.03,Wunderground v.1.13,2013-01-15 23:40:00,
2013-01-15 17:45:00,39.4,34.4,29.98,NNW,331,2.0,2.0,82,0.00,,,0.03,Wunderground v.1.13,2013-01-15 23:45:00,
2013-01-15 17:50:00,39.3,34.0,29.99,NNW,327,2.0,2.0,81,0.00,,,0.03,Wunderground v.1.13,2013-01-15 23:50:00,
2013-01-15 17:59:00,39.2,33.9,29.99,NNW,342,2.0,2.0,81,0.00,,,0.03,Wunderground v.1.13,2013-01-15 23:59:00,
2013-01-15 18:05:00,39.1,33.8,29.99,North,360,2.0,2.0,81,0.00,,,0.03,Wunderground v.1.13,2013-01-16 00:05:00,
2013-01-15 18:15:00,39.0,33.4,29.99,NW,320,2.0,6.0,80,0.00,,,0.03,Wunderground v.1.13,2013-01-16 00:15:00,
2013-01-15 18:20:00,39.0,33.4,29.99,NW,309,2.0,3.0,80,0.00,,,0.03,Wunderground v.1.13,2013-01-16 00:20:00,
2013-01-15 18:25:00,38.9,33.3,29.99,NW,323,2.0,3.0,80,0.00,,,0.03,Wunderground v.1.13,2013-01-16 00:25:00,
2013-01-15 18:34:00,38.9,33.3,29.99,NNW,332,2.0,2.0,80,0.00,,,0.03,Wunderground v.1.13,2013-01-16 00:34:00,
2013-01-15 18:44:00,38.8,32.8,30.00,NNW,328,3.0,3.0,79,0.00,,,0.03,Wunderground v.1.13,2013-01-16 00:44:00,
2013-01-15 18:49:00,38.7,32.4,30.00,NW,314,3.0,3.0,78,0.00,,,0.03,Wunderground v.1.13,2013-01-16 00:49:00,
2013-01-15 18:54:00,38.7,32.1,29.99,NNE,18,2.0,3.0,77,0.00,,,0.03,Wunderground v.1.13,2013-01-16 00:54:00,
2013-01-15 18:59:00,38.6,32.0,29.99,NE,46,2.0,2.0,77,0.00,,,0.03,Wunderground v.1.13,2013-01-16 00:59:00,
2013-01-15 19:04:00,38.6,32.0,29.99,North,9,1.0,1.0,77,0.00,,,0.03,Wunderground v.1.13,2013-01-16 01:04:00,
2013-01-15 19:09:00,38.5,31.9,29.99,NNE,19,1.0,2.0,77,0.00,,,0.03,Wunderground v.1.13,2013-01-16 01:09:00,
2013-01-15 19:14:00,38.4,31.8,29.98,North,355,1.0,1.0,77,0.00,,,0.03,Wunderground v.1.13,2013-01-16 01:14:00,
2013-01-15 19:20:00,38.3,31.7,29.99,North,360,1.0,1.0,77,0.00,,,0.03,Wunderground v.1.13,2013-01-16 01:20:00,
2013-01-15 19:25:00,38.1,31.5,29.98,NNE,26,1.0,3.0,77,0.00,,,0.03,Wunderground v.1.13,2013-01-16 01:25:00,
2013-01-15 19:30:00,38.0,31.4,29.98,North,11,1.0,2.0,77,0.00,,,0.03,Wunderground v.1.13,2013-01-16 01:30:00,
2013-01-15 19:35:00,37.8,31.6,29.98,NNW,327,2.0,2.0,78,0.00,,,0.03,Wunderground v.1.13,2013-01-16 01:35:00,
2013-01-15 19:44:00,37.7,31.5,29.98,NW,325,2.0,2.0,78,0.00,,,0.03,Wunderground v.1.13,2013-01-16 01:44:00,
2013-01-15 19:54:00,37.7,31.1,29.99,NE,37,2.0,2.0,77,0.00,,,0.03,Wunderground v.1.13,2013-01-16 01:54:00,
2013-01-15 19:59:00,37.7,30.8,30.00,NNE,26,1.0,1.0,76,0.00,,,0.03,Wunderground v.1.13,2013-01-16 01:59:00,
2013-01-15 20:05:00,37.7,30.5,30.00,NE,39,2.0,2.0,75,0.00,,,0.03,Wunderground v.1.13,2013-01-16 02:05:00,
2013-01-15 20:15:00,37.7,30.2,30.01,NNW,345,1.0,1.0,74,0.00,,,0.03,Wunderground v.1.13,2013-01-16 02:15:00,
2013-01-15 20:20:00,37.6,30.1,30.02,NNW,342,1.0,1.0,74,0.00,,,0.03,Wunderground v.1.13,2013-01-16 02:20:00,
2013-01-15 20:25:00,37.6,29.7,30.02,NNW,340,1.0,1.0,73,0.00,,,0.03,Wunderground v.1.13,2013-01-16 02:25:00,
2013-01-15 20:34:00,37.5,29.6,30.02,NW,324,1.0,1.0,73,0.00,,,0.03,Wunderground v.1.13,2013-01-16 02:34:00,
2013-01-15 20:39:00,37.5,29.3,30.02,NW,325,1.0,1.0,72,0.00,,,0.03,Wunderground v.1.13,2013-01-16 02:39:00,
2013-01-15 20:44:00,37.4,29.5,30.02,NW,325,1.0,2.0,73,0.00,,,0.03,Wunderground v.1.13,2013-01-16 02:44:00,
2013-01-15 20:49:00,37.3,29.4,30.01,NW,320,1.0,1.0,73,0.00,,,0.03,Wunderground v.1.13,2013-01-16 02:49:00,
2013-01-15 20:54:00,37.2,29.3,30.02,NW,325,1.0,2.0,73,0.00,,,0.03,Wunderground v.1.13,2013-01-16 02:54:00,
2013-01-15 21:04:00,36.9,29.4,30.02,NNW,327,1.0,1.0,74,0.00,,,0.03,Wunderground v.1.13,2013-01-16 03:04:00,
2013-01-15 21:09:00,36.7,29.5,30.02,NNW,327,1.0,2.0,75,0.00,,,0.03,Wunderground v.1.13,2013-01-16 03:09:00,
2013-01-15 21:15:00,36.5,29.7,30.02,NNW,327,1.0,1.0,76,0.00,,,0.03,Wunderground v.1.13,2013-01-16 03:15:00,
2013-01-15 21:20:00,36.3,29.5,30.02,NNW,327,1.0,1.0,76,0.00,,,0.03,Wunderground v.1.13,2013-01-16 03:20:00,
2013-01-15 21:25:00,36.2,29.7,30.02,NNW,327,1.0,1.0,77,0.00,,,0.03,Wunderground v.1.13,2013-01-16 03:25:00,
2013-01-15 21:30:00,36.1,29.6,30.02,NNW,327,1.0,2.0,77,0.00,,,0.03,Wunderground v.1.13,2013-01-16 03:30:00,
2013-01-15 21:35:00,36.0,29.5,30.03,NNW,327,0.0,0.0,77,0.00,,,0.03,Wunderground v.1.13,2013-01-16 03:35:00,
2013-01-15 21:40:00,35.9,29.7,30.03,NNW,327,0.0,0.0,78,0.00,,,0.03,Wunderground v.1.13,2013-01-16 03:40:00,
2013-01-15 21:45:00,35.8,29.6,30.03,NNW,327,0.0,0.0,78,0.00,,,0.03,Wunderground v.1.13,2013-01-16 03:45:00,
2013-01-15 21:54:00,35.4,29.5,30.04,NNW,327,0.0,0.0,79,0.00,,,0.03,Wunderground v.1.13,2013-01-16 03:54:00,
2013-01-15 21:59:00,35.4,29.5,30.04,NNW,327,0.0,0.0,79,0.00,,,0.03,Wunderground v.1.13,2013-01-16 03:59:00,
2013-01-15 22:05:00,35.2,29.3,30.04,NNW,327,0.0,0.0,79,0.00,,,0.03,Wunderground v.1.13,2013-01-16 04:05:00,
2013-01-15 22:14:00,35.3,29.4,30.05,NNW,327,0.0,0.0,79,0.00,,,0.03,Wunderground v.1.13,2013-01-16 04:14:00,
2013-01-15 22:19:00,35.4,29.2,30.05,NNW,327,0.0,1.0,78,0.00,,,0.03,Wunderground v.1.13,2013-01-16 04:19:00,
2013-01-15 22:24:00,35.3,29.1,30.05,NNW,327,0.0,0.0,78,0.00,,,0.03,Wunderground v.1.13,2013-01-16 04:24:00,
2013-01-15 22:30:00,35.3,29.1,30.05,NNW,327,0.0,1.0,78,0.00,,,0.03,Wunderground v.1.13,2013-01-16 04:30:00,
2013-01-15 22:35:00,35.3,29.1,30.06,NNW,327,0.0,2.0,78,0.00,,,0.03,Wunderground v.1.13,2013-01-16 04:35:00,
2013-01-15 22:40:00,35.3,28.8,30.06,NNW,332,1.0,3.0,77,0.00,,,0.03,Wunderground v.1.13,2013-01-16 04:40:00,
2013-01-15 22:45:00,35.3,28.8,30.06,NNW,332,1.0,1.0,77,0.00,,,0.03,Wunderground v.1.13,2013-01-16 04:45:00,
2013-01-15 22:50:00,35.2,28.7,30.05,NNW,332,1.0,1.0,77,0.00,,,0.03,Wunderground v.1.13,2013-01-16 04:50:00,
2013-01-15 22:55:00,35.2,28.4,30.05,NNW,336,1.0,3.0,76,0.00,,,0.03,Wunderground v.1.13,2013-01-16 04:55:00,
2013-01-15 23:00:00,35.3,28.5,30.05,NNW,331,2.0,2.0,76,0.00,,,0.03,Wunderground v.1.13,2013-01-16 05:00:00,
2013-01-15 23:05:00,35.3,28.2,30.06,NNW,337,2.0,7.0,75,0.00,,,0.03,Wunderground v.1.13,2013-01-16 05:05:00,
2013-01-15 23:10:00,35.3,28.2,30.06,NNW,336,2.0,2.0,75,0.00,,,0.03,Wunderground v.1.13,2013-01-16 05:10:00,
2013-01-15 23:15:00,35.3,27.8,30.06,NNW,346,2.0,3.0,74,0.00,,,0.03,Wunderground v.1.13,2013-01-16 05:15:00,
2013-01-15 23:20:00,35.3,27.5,30.06,NW,306,3.0,7.0,73,0.00,,,0.03,Wunderground v.1.13,2013-01-16 05:20:00,
2013-01-15 23:25:00,35.3,27.5,30.06,NW,316,3.0,3.0,73,0.00,,,0.03,Wunderground v.1.13,2013-01-16 05:25:00,
2013-01-15 23:30:00,35.2,27.4,30.06,NW,321,2.0,4.0,73,0.00,,,0.03,Wunderground v.1.13,2013-01-16 05:30:00,
2013-01-15 23:39:00,35.1,27.0,30.07,NNW,331,2.0,3.0,72,0.00,,,0.03,Wunderground v.1.13,2013-01-16 05:39:00,
2013-01-15 23:44:00,35.1,27.0,30.07,NNW,348,2.0,7.0,72,0.00,,,0.03,Wunderground v.1.13,2013-01-16 05:44:00,
2013-01-15 23:49:00,35.2,26.7,30.07,NW,323,3.0,3.0,71,0.00,,,0.03,Wunderground v.1.13,2013-01-16 05:49:00,
2013-01-15 23:54:00,35.1,26.6,30.06,NW,315,2.0,3.0,71,0.00,,,0.03,Wunderground v.1.13,2013-01-16 05:54:00,
2013-01-15 23:59:00,35.0,26.5,30.06,NW,321,2.0,2.0,71,0.00,,,0.03,Wunderground v.1.13,2013-01-16 05:59:00,